This is the latest recevied weather packets stored in our database for station/object KM6YFK-13. If no packets are shown the sender has not sent any weather packets the latest 10 day(s).
| Time | Temp. | Humidity | Pressure | Rain* | Wind** | Luminosity | Snow |
|---|---|---|---|---|---|---|---|
| 1777820308 | 21.67° C | 68% | 1018.8 hPa | 0 mm | - | 331 W/m² | - |
| 1777820007 | 21.67° C | 66% | 1018.8 hPa | 0 mm | - | 668 W/m² | - |
| 1777819707 | 21.67° C | 66% | 1018.7 hPa | 0 mm | - | 775 W/m² | - |
| 1777819407 | 21.67° C | 67% | 1018.8 hPa | 0 mm | - | 550 W/m² | - |
| 1777819108 | 21.67° C | 69% | 1018.7 hPa | 0 mm | - | 781 W/m² | - |
| 1777818807 | 21.11° C | 69% | 1018.7 hPa | 0 mm | - | 752 W/m² | - |
| 1777818508 | 21.67° C | 68% | 1018.6 hPa | 0 mm | - | 562 W/m² | - |
| 1777818208 | 21.11° C | 71% | 1018.5 hPa | 0 mm | - | 744 W/m² | - |
| 1777817908 | 21.11° C | 72% | 1018.5 hPa | 0 mm | - | 710 W/m² | - |
| 1777817608 | 20.56° C | 72% | 1018.6 hPa | 0 mm | - | 648 W/m² | - |
| 1777817308 | 20.56° C | 72% | 1018.5 hPa | 0 mm | - | 647 W/m² | - |
| 1777817007 | 20.56° C | 70% | 1018.5 hPa | 0 mm | - | 444 W/m² | - |
| 1777816707 | 20.56° C | 72% | 1018.4 hPa | 0 mm | - | 636 W/m² | - |
| 1777816407 | 20.56° C | 72% | 1018.3 hPa | 0 mm | - | 333 W/m² | - |
| 1777816107 | 20.56° C | 72% | 1018.2 hPa | 0 mm | - | 254 W/m² | - |
| 1777815807 | 20° C | 73% | 1018.2 hPa | 0 mm | - | 349 W/m² | - |
| 1777815508 | 20° C | 73% | 1018.1 hPa | 0 mm | - | 244 W/m² | - |
| 1777815208 | 20° C | 76% | 1018 hPa | 0 mm | - | 225 W/m² | - |
| 1777814907 | 20° C | 75% | 1017.9 hPa | 0 mm | - | 204 W/m² | - |
| 1777814608 | 19.44° C | 78% | 1017.7 hPa | 0 mm | - | 426 W/m² | - |
| 1777814308 | 18.89° C | 80% | 1017.5 hPa | 0 mm | - | 240 W/m² | - |
| 1777814007 | 18.89° C | 88% | 1017.5 hPa | 0 mm | - | 141 W/m² | - |
| 1777813708 | 18.89° C | 89% | 1017.5 hPa | 0 mm | - | 429 W/m² | - |
| 1777813407 | 18.33° C | 90% | 1017.6 hPa | 0 mm | - | 151 W/m² | - |
| 1777813108 | 18.33° C | 91% | 1017.6 hPa | 0 mm | - | 179 W/m² | - |
* Rain latest hour (hover to see other rain measurements)
** Current wind speed in m/s (hover to see current wind gust speed)